Location: Bogis-Bossey
(46.3500°N, 6.1667°E)
Time: 18:40:52
(UTC+00:00)

Cosmos 1328 Rocket - Pass Details

Date: 17 August 2022
Orbit: 602 x 625 km, 82.5° (Epoch: 30 September)

Event Time Altitude Azimuth Distance (km) Brightness Sun altitude
Rises 19:56:37 0° 352° (N) 2,866 7.7 -12.3°
Reaches altitude 10° 19:58:50 10° 353° (N) 1,959 6.7 -12.6°
Maximum altitude 20:03:10 79° 81° (E) 622 3.4 -13.2°
Enters shadow 20:06:52 14° 167° (SSE) 1,703 5.4 -13.8°
